Flag for Norway Weather past 2 weeks in Melhus, Norway

Now
34 °F

Clear.


Feels Like: 28 °F
Forecast: 26 / 44 °F
Wind: 7 mph from Southeast

Location: Trondheim / Vaernes

Current Time: Mar 30, 2015 at 10:31:59 PM

Latest Report: Mar 30, 2015 at 9:50 PM


Visibility: 10 mi

Pressure: 29.12 "Hg

Humidity: 75%

Dew point: 27 °F

Location of MelhusLocation

Historic Weather in Melhus — Graph

°F

Melhus temperature yesterday

Maximum temperature yesterday: 46 °F (at 11:20 AM)
Minimum temperature yesterday: 36 °F (at 10:50 PM)
Average temperature yesterday: 43 °F

Past Weeks' High & Low Weather Summary

 TemperatureHumidityPressure
High52 °F (Mar 16, 2:20 PM)100% (Mar 22, 8:20 AM)30.77 "Hg (Mar 22, 8:20 AM)
Low19 °F (Mar 21, 5:20 AM)23% (Mar 15, 8:20 PM)28.97 "Hg (Mar 29, 5:20 PM)
Average39 °F67%29.94 "Hg
* Reported Mar 15 8:20 PM — Mar 30 9:20 PM, Melhus, Weather by CustomWeather, © 2015

Note: Actual official high and low records may vary slightly from our data, if they occured in-between our weather recording intervals... More about our weather records

Advertising

Melhus weather history for previous 24 hours

 ConditionsComfort  
Time TempWeatherWind HumidityBarometerVisibility
9:20 PM
Mon, Mar 30
36 °FClear.7 mph70%29.12 "Hg10 mi
8:50 PM36 °FSunny.2 mph75%29.12 "Hg10 mi
8:20 PM39 °FSunny.1 mph65%29.12 "Hg10 mi
7:50 PM41 °FSunny.1 mph57%29.12 "Hg10 mi
7:20 PM41 °FPassing clouds.3 mph57%29.12 "HgN/A
6:50 PM41 °FPassing clouds.6 mph61%29.12 "HgN/A
6:20 PM45 °FScattered clouds.6 mph49%29.15 "HgN/A
5:50 PM45 °FScattered clouds.6 mph49%29.15 "HgN/A
5:20 PM45 °FScattered clouds.6 mph49%29.15 "HgN/A
4:50 PM45 °FPartly sunny.7 mph49%29.15 "HgN/A
4:20 PM43 °FScattered clouds.8 mph57%29.15 "HgN/A
3:50 PM45 °FPartly sunny.7 mph49%29.15 "HgN/A
3:20 PM43 °FScattered clouds.8 mph61%29.12 "HgN/A
2:50 PM43 °FScattered clouds.8 mph57%29.15 "HgN/A
2:20 PM41 °FScattered clouds.8 mph61%29.12 "HgN/A
1:50 PM43 °FScattered clouds.8 mph61%29.12 "HgN/A
1:20 PM41 °FScattered clouds.7 mph66%29.12 "HgN/A
12:50 PM39 °FScattered clouds.7 mph75%29.12 "HgN/A
12:20 PM39 °FScattered clouds.5 mph75%29.12 "HgN/A
11:50 AM41 °FScattered clouds.2 mph76%29.12 "HgN/A
11:20 AM39 °FScattered clouds.1 mph81%29.12 "HgN/A
10:50 AM37 °FScattered clouds.1 mph81%29.09 "HgN/A
10:20 AM37 °FScattered clouds.2 mph93%29.09 "HgN/A
9:50 AM36 °FScattered clouds.3 mph93%29.09 "HgN/A
9:20 AM34 °FScattered clouds.5 mph100%29.09 "HgN/A
8:50 AM34 °FBroken clouds.5 mph100%29.09 "HgN/A
8:20 AM34 °FBroken clouds.5 mph93%29.06 "HgN/A
7:50 AM34 °FBroken clouds.3 mph93%29.06 "HgN/A
7:20 AM34 °FPassing clouds.3 mph93%29.06 "HgN/A
6:50 AM34 °FLight snow. Partly cloudy.2 mph93%29.03 "HgN/A
6:20 AM32 °FMostly cloudy.2 mph100%29.03 "HgN/A
5:50 AM32 °FPartly cloudy.5 mph100%29.03 "HgN/A
4:50 AM34 °FPassing clouds.5 mph93%29.00 "HgN/A
1:50 AM36 °FRain. Passing clouds.3 mph93%29.00 "HgN/A
12:50 AM36 °FPartly cloudy.3 mph93%29.00 "HgN/A
12:20 AM36 °FPartly cloudy.5 mph93%29.00 "HgN/A
11:50 PM
Sun, Mar 29
36 °FPartly cloudy.6 mph93%29.00 "HgN/A
11:20 PM36 °FPartly cloudy.6 mph100%29.00 "HgN/A
10:50 PM36 °FPartly cloudy.6 mph93%29.00 "HgN/A
10:20 PM37 °FPartly cloudy.6 mph93%29.00 "HgN/A
Weather by CustomWeather, © 2015

See weather overviewHow to use our weather pages